• en France
  • Liste des pays
  • À 7 jours
  • Température de l'eau
  • Carte satellitaire
  • Carte météo
  • Widgets météo
  • user-avatar
    Se connecter

    Météo par heure à Korçё

    Ce jour, 22 Septembre, Samedi

    Heure Température Précipitation Vent Pression Humidité
    00:00 +14°C° 0 mm 1 m/s 669 mmHg 69%
    01:00 +14°C° 0 mm 1 m/s 669 mmHg 69%
    02:00 +14°C° 0 mm 1 m/s 669 mmHg 68%
    03:00 +14°C° 0 mm 1 m/s 669 mmHg 68%
    04:00 +14°C° 0 mm 1 m/s 668 mmHg 67%
    05:00 +15°C° 0 mm 1 m/s 669 mmHg 64%
    06:00 +15°C° 0 mm 0 m/s 669 mmHg 61%
    07:00 +18°C° 0 mm 1 m/s 670 mmHg 56%
    08:00 +20°C° 0 mm 1 m/s 670 mmHg 51%
    09:00 +22°C° 0 mm 1 m/s 671 mmHg 47%
    10:00 +24°C° 0 mm 1 m/s 671 mmHg 42%
    11:00 +25°C° 0 mm 1 m/s 671 mmHg 40%
    12:00 +25°C° 0 mm 2 m/s 671 mmHg 38%
    13:00 +26°C° 0 mm 2 m/s 671 mmHg 36%
    14:00 +26°C° 0 mm 2 m/s 671 mmHg 39%
    15:00 +25°C° 0 mm 2 m/s 671 mmHg 41%
    16:00 +24°C° 0 mm 2 m/s 671 mmHg 44%
    17:00 +21°C° 0 mm 2 m/s 670 mmHg 53%
    18:00 +19°C° 0 mm 2 m/s 670 mmHg 62%
    19:00 +18°C° 0 mm 1 m/s 670 mmHg 71%
    20:00 +18°C° 0 mm 1 m/s 670 mmHg 74%
    21:00 +16°C° 0 mm 1 m/s 670 mmHg 77%
    22:00 +16°C° 0 mm 1 m/s 670 mmHg 80%
    23:00 +16°C° 0 mm 1 m/s 670 mmHg 80%

    Demain, 23 Septembre, Dimanche

    Heure Température Précipitation Vent Pression Humidité
    00:00 +15°C° 0 mm 1 m/s 670 mmHg 80%
    01:00 +15°C° 0 mm 1 m/s 670 mmHg 81%
    02:00 +15°C° 0 mm 1 m/s 670 mmHg 80%
    03:00 +15°C° 0 mm 1 m/s 670 mmHg 79%
    04:00 +14°C° 0 mm 1 m/s 670 mmHg 79%
    05:00 +16°C° 0 mm 1 m/s 670 mmHg 74%
    06:00 +18°C° 0 mm 1 m/s 671 mmHg 68%
    07:00 +19°C° 0 mm 1 m/s 671 mmHg 63%
    08:00 +21°C° 0 mm 1 m/s 672 mmHg 55%
    09:00 +23°C° 0 mm 1 m/s 673 mmHg 46%
    10:00 +26°C° 0 mm 1 m/s 673 mmHg 38%
    11:00 +26°C° 0 mm 1 m/s 673 mmHg 36%
    12:00 +27°C° 0 mm 1 m/s 673 mmHg 34%
    13:00 +28°C° 0 mm 2 m/s 673 mmHg 32%
    14:00 +27°C° 0 mm 2 m/s 673 mmHg 34%
    15:00 +27°C° 0 mm 2 m/s 673 mmHg 37%
    16:00 +26°C° 0 mm 2 m/s 672 mmHg 39%
    17:00 +24°C° 0 mm 2 m/s 672 mmHg 47%
    18:00 +21°C° 0 mm 1 m/s 671 mmHg 54%
    19:00 +19°C° 0 mm 1 m/s 671 mmHg 61%
    20:00 +19°C° 0 mm 1 m/s 671 mmHg 64%
    21:00 +18°C° 0 mm 1 m/s 671 mmHg 66%
    22:00 +18°C° 0 mm 1 m/s 671 mmHg 68%
    23:00 +18°C° 0 mm 1 m/s 670 mmHg 70%

    Après-demain, 24 Septembre, Lundi

    Heure Température Précipitation Vent Pression Humidité
    00:00 +16°C° 0 mm 1 m/s 670 mmHg 73%
    01:00 +16°C° 0 mm 1 m/s 670 mmHg 75%
    02:00 +16°C° 0 mm 1 m/s 669 mmHg 76%
    03:00 +15°C° 0 mm 1 m/s 669 mmHg 78%
    04:00 +15°C° 0 mm 1 m/s 669 mmHg 80%
    05:00 +16°C° 0 mm 1 m/s 669 mmHg 76%
    06:00 +18°C° 0 mm 1 m/s 669 mmHg 72%
    07:00 +19°C° 0 mm 1 m/s 669 mmHg 67%
    08:00 +21°C° 0 mm 1 m/s 670 mmHg 58%
    09:00 +23°C° 0 mm 2 m/s 670 mmHg 48%
    10:00 +24°C° 0 mm 2 m/s 670 mmHg 38%
    11:00 +25°C° 0 mm 2 m/s 670 mmHg 36%
    12:00 +26°C° 0 mm 2 m/s 670 mmHg 35%
    13:00 +27°C° 0 mm 3 m/s 670 mmHg 33%
    14:00 +26°C° 0 mm 3 m/s 669 mmHg 36%
    15:00 +25°C° 0 mm 3 m/s 669 mmHg 39%
    16:00 +25°C° 0 mm 3 m/s 668 mmHg 42%
    17:00 +21°C° 0 mm 2 m/s 668 mmHg 51%
    18:00 +19°C° 0 mm 2 m/s 668 mmHg 59%
    19:00 +18°C° 0 mm 1 m/s 668 mmHg 68%
    20:00 +18°C° 0 mm 1 m/s 668 mmHg 70%
    21:00 +16°C° 0 mm 1 m/s 669 mmHg 72%
    22:00 +15°C° 0 mm 2 m/s 669 mmHg 74%
    23:00 +15°C° 0 mm 2 m/s 669 mmHg 73%

    25 Septembre, Mardi

    Heure Température Précipitation Vent Pression Humidité
    00:00 +14°C° 0 mm 2 m/s 669 mmHg 72%
    01:00 +13°C° 0 mm 2 m/s 669 mmHg 71%
    02:00 +13°C° 0 mm 2 m/s 669 mmHg 69%
    03:00 +12°C° 0 mm 2 m/s 669 mmHg 67%
    04:00 +10°C° 0 mm 2 m/s 669 mmHg 65%
    05:00 +11°C° 0 mm 3 m/s 669 mmHg 61%
    06:00 +11°C° 0 mm 3 m/s 669 mmHg 58%
    07:00 +11°C° 0 mm 3 m/s 670 mmHg 54%
    08:00 +13°C° 0 mm 3 m/s 670 mmHg 49%
    09:00 +16°C° 0 mm 3 m/s 671 mmHg 44%
    10:00 +18°C° 0 mm 3 m/s 672 mmHg 39%
    11:00 +19°C° 0 mm 3 m/s 672 mmHg 38%
    12:00 +19°C° 0 mm 3 m/s 672 mmHg 37%
    13:00 +20°C° 0 mm 3 m/s 672 mmHg 36%
    14:00 +19°C° 0 mm 4 m/s 672 mmHg 37%
    15:00 +19°C° 0 mm 4 m/s 672 mmHg 38%
    16:00 +18°C° 0 mm 4 m/s 671 mmHg 39%
    17:00 +15°C° 0 mm 4 m/s 671 mmHg 40%
    18:00 +13°C° 0 mm 3 m/s 672 mmHg 42%
    19:00 +11°C° 0 mm 3 m/s 672 mmHg 43%
    20:00 +10°C° 0 mm 3 m/s 672 mmHg 43%
    21:00 +9°C° 0 mm 3 m/s 672 mmHg 43%
    22:00 +8°C° 0 mm 3 m/s 672 mmHg 43%
    23:00 +7°C° 0 mm 3 m/s 672 mmHg 44%

    26 Septembre, Mercredi

    Heure Température Précipitation Vent Pression Humidité
    00:00 +5°C° 0 mm 3 m/s 672 mmHg 44%
    01:00 +5°C° 0 mm 3 m/s 672 mmHg 45%
    02:00 +4°C° 0 mm 3 m/s 672 mmHg 46%
    03:00 +3°C° 0 mm 3 m/s 672 mmHg 48%
    04:00 +3°C° 0 mm 3 m/s 672 mmHg 49%
    05:00 +3°C° 0 mm 3 m/s 673 mmHg 47%
    06:00 +4°C° 0 mm 3 m/s 673 mmHg 46%
    07:00 +5°C° 0 mm 4 m/s 674 mmHg 44%
    08:00 +7°C° 0 mm 4 m/s 674 mmHg 39%
    09:00 +8°C° 0 mm 4 m/s 675 mmHg 34%
    10:00 +10°C° 0 mm 5 m/s 675 mmHg 28%
    11:00 +12°C° 0 mm 5 m/s 675 mmHg 27%
    12:00 +12°C° 0 mm 5 m/s 675 mmHg 26%
    13:00 +13°C° 0 mm 5 m/s 675 mmHg 25%
    14:00 +13°C° 0 mm 5 m/s 675 mmHg 26%
    15:00 +12°C° 0 mm 5 m/s 675 mmHg 27%
    16:00 +10°C° 0 mm 5 m/s 675 mmHg 28%
    17:00 +9°C° 0 mm 5 m/s 675 mmHg 31%
    18:00 +7°C° 0 mm 4 m/s 675 mmHg 35%
    19:00 +5°C° 0 mm 3 m/s 675 mmHg 38%
    20:00 +5°C° 0 mm 3 m/s 675 mmHg 40%
    21:00 +4°C° 0 mm 3 m/s 675 mmHg 41%
    22:00 +5°C° 0 mm 2 m/s 675 mmHg 43%
    23:00 +4°C° 0 mm 2 m/s 675 mmHg 45%

    27 Septembre, Jeudi

    Heure Température Précipitation Vent Pression Humidité
    00:00 +4°C° 0 mm 2 m/s 674 mmHg 47%
    01:00 +3°C° 0 mm 2 m/s 674 mmHg 48%
    02:00 +3°C° 0 mm 2 m/s 674 mmHg 50%
    03:00 +3°C° 0 mm 2 m/s 673 mmHg 52%
    04:00 +2°C° 0 mm 2 m/s 673 mmHg 54%
    05:00 +3°C° 0 mm 2 m/s 673 mmHg 51%
    06:00 +3°C° 0 mm 3 m/s 673 mmHg 48%
    07:00 +4°C° 0 mm 3 m/s 673 mmHg 46%
    08:00 +8°C° 0 mm 3 m/s 673 mmHg 38%
    09:00 +10°C° 0 mm 3 m/s 673 mmHg 30%
    10:00 +12°C° 0 mm 3 m/s 673 mmHg 22%
    11:00 +14°C° 0 mm 4 m/s 673 mmHg 20%
    12:00 +15°C° 0 mm 4 m/s 673 mmHg 18%
    13:00 +16°C° 0 mm 5 m/s 672 mmHg 16%
    14:00 +17°C° 0 mm 4 m/s 672 mmHg 17%
    15:00 +17°C° 0 mm 4 m/s 671 mmHg 19%
    16:00 +17°C° 0 mm 4 m/s 671 mmHg 20%
    17:00 +13°C° 0 mm 3 m/s 670 mmHg 23%
    18:00 +11°C° 0 mm 3 m/s 669 mmHg 27%
    19:00 +9°C° 0 mm 2 m/s 669 mmHg 30%
    20:00 +8°C° 0 mm 2 m/s 669 mmHg 31%
    21:00 +8°C° 0 mm 2 m/s 668 mmHg 33%
    22:00 +8°C° 0 mm 2 m/s 668 mmHg 34%
    23:00 +7°C° 0 mm 2 m/s 668 mmHg 35%
    Voir plus